Dewpoint
4 4 4 4 4 3 2 1 2 0 1 -1 -1 1 2 2 1 1 1 1 1 2 4 6 7 6 3 3 2 2 4 5 -1 -3 2 3 1 -1 -0 -1 -2 -1 -1 -2 -2 -2 -1
4 4 4 5 5 5 4 4 2 2 1 1 0 0 1 -0 1 1 1 -4 0 1 0 5 6 5 3 3 -0 2 0 0 -1 1 3 2 -1 -1 -1 -2 -2 -2 -2 -2 -2 -2 -2
3 3 4 4 5 5 3 5 3 3 3 2 2 0 -0 -0 -1 -2 -4 -14 -7 1 -1 4 6 5 3 3 2 2 -2 -0 -0 1 2 1 -1 -1 -1 -1 -1 -1 0 -0 -2 -3 -2
4 5 4 1 0 0 2 3 4 3 2 1 1 -1 -3 -1 -0 -3 -6 -18 -3 2 -1 4 5 4 3 3 4 3 -0 0 2 1 1 0 -1 -1 -0 -1 -1 1 1 2 -1 -1 -1
4 2 -3 1 -0 -0 1 1 2 1 1 1 0 -2 -1 -2 -2 -4 -9 -15 3 2 0 6 5 3 3 3 2 1 -1 -0 -0 0 0 0 -0 -1 0 1 1 1 2 2 1 -1 -0
3 0 -3 1 1 -1 -0 0 0 0 0 -1 -1 -3 -3 -3 -3 -6 -10 -8 1 4 5 4 4 2 3 3 2 0 1 0 1 -0 -1 1 0 2 1 1 1 1 2 2 3 1 2
2 -7 -0 -1 -1 -1 -0 -2 -1 -1 -1 -2 -2 -3 -5 -4 -5 -5 -6 -4 2 3 4 2 3 3 3 2 2 2 1 1 -0 -0 -1 0 2 1 -0 -0 -1 0 2 3 2 1 2
1 -2 -0 1 1 -0 -1 -2 -1 -2 -3 -3 -3 -3 -3 -5 -6 -2 -3 -1 0 0 2 4 3 3 2 1 2 1 1 0 -0 1 -0 2 1 -1 -1 -1 -0 1 3 4 2 2 3
0 0 0 1 1 -0 -0 -1 -2 -3 -3 -3 -3 -3 -4 -5 -3 -2 -2 -0 -0 0 2 3 4 3 2 1 2 1 -0 1 1 1 1 2 0 0 0 1 2 3 4 3 4 4 4
-0 -1 -1 1 1 -2 -1 -1 -2 -3 -3 -3 -4 -4 -4 -4 -3 0 -1 -1 -0 1 3 3 3 3 1 0 2 0 -0 2 2 2 2 3 1 2 1 2 3 5 2 3 5 7 7
-1 -1 0 0 -0 -0 -1 -0 0 1 0 -2 -3 -3 -3 -3 -3 -2 -0 -0 1 2 4 3 3 3 1 2 2 2 1 2 2 0 2 1 4 4 5 4 2 5 3 5 4 6 7
-10 -4 -1 0 0 -1 -0 1 0 -1 -0 -1 -2 -2 -3 -3 -4 -2 -2 1 1 2 4 4 2 3 2 2 3 3 2 2 3 3 2 3 2 3 3 3 3 2 4 4 5 6 8
-14 -3 -1 0 -0 -1 -0 0 -0 -1 -2 -3 -1 -1 -1 -2 -1 -2 0 2 -0 3 3 3 4 2 2 4 3 2 3 3 4 5 5 4 4 3 3 4 4 4 6 6 7 8 8
-15 -4 -1 -0 -1 -1 -0 0 0 -1 -2 -2 -2 -2 -3 -2 -2 -3 -1 -2 3 3 3 3 2 2 3 3 4 3 4 5 4 4 5 4 6 5 4 5 6 6 6 7 8 9 9
-15 -14 -1 -1 -5 -4 -4 -1 -1 -1 -1 -1 -2 -3 -4 -3 -2 -0 -0 3 4 3 3 3 4 4 4 3 5 5 4 5 4 3 5 7 6 4 4 4 4 6 8 6 7 7 8
-16 -13 -7 -4 -6 -5 -6 -4 -6 -4 -5 -5 -6 -4 -1 0 0 0 1 4 4 2 2 1 3 3 4 5 6 5 6 4 5 3 2 6 7 4 3 4 4 5 5 7 6 7 9
-16 -12 -12 -8 -6 -6 -6 -6 -4 -10 -6 -5 -4 -2 0 1 -1 -0 3 3 2 2 2 1 1 1 4 5 5 6 5 2 2 3 3 4 5 2 3 4 3 4 6 6 4 6 8
-14 -13 -16 -7 -6 -6 -6 -8 -5 -4 -4 -4 -2 -2 0 -0 -0 1 1 2 1 2 2 2 -0 -1 -0 3 4 3 4 3 2 1 4 2 4 6 3 1 1 1 3 3 5 5 3
-7 -15 -15 -7 -5 -3 -3 -8 -7 -5 -3 -3 -0 0 -1 1 2 -0 -0 0 1 2 2 2 1 -2 -3 -1 3 3 3 1 1 1 0 0 3 5 3 -1 -0 2 1 1 1 2 4
-5 -18 -13 -15 -2 -2 -1 -3 -7 -6 -5 -2 -0 -2 -1 -1 1 1 0 1 1 1 2 2 2 -2 -1 2 1 3 2 1 1 0 1 1 1 2 2 2 2 3 2 1 1 4 5
-2 -20 -12 -18 -5 -3 -3 -3 -5 -6 -5 -2 -0 -1 1 -1 1 1 0 1 2 2 1 1 1 1 0 2 1 2 0 0 -1 -1 -0 -1 2 0 0 0 0 0 1 2 2 1 5
-1 -19 -13 -16 -14 -3 -1 -1 -3 -6 -5 -4 -1 -0 -0 -0 -0 0 -0 1 2 1 2 2 2 1 1 3 2 2 1 1 1 -1 -0 -0 1 2 0 -0 -1 -0 -0 1 2 1 2
0 -14 -16 -14 -17 -2 -1 -0 -2 -4 -3 -2 0 1 1 -1 -1 -1 -0 1 2 2 1 1 1 1 2 2 1 1 -0 -1 -1 -1 -0 1 1 2 1 1 -0 -1 -1 -0 1 1 1
1 -7 -20 -13 -12 -2 -1 -1 -0 -4 -3 -2 -0 -0 -1 -1 -1 -1 -1 -0 0 0 2 2 1 1 1 1 -0 -1 -2 -2 -2 -2 -2 0 1 1 0 -1 -3 -3 -3 -3 -1 -1 0
1 -2 -24 -12 -6 -2 -1 -2 -2 -4 -3 -1 -0 -0 -0 -2 -2 -1 -1 -1 -1 1 1 1 1 1 2 1 0 -0 -0 -2 -2 -1 -1 -2 1 1 1 -1 -3 -2 -3 -2 -2 -1 -2
1 -1 -25 -12 -4 -1 -2 -3 -3 -2 -2 -1 -1 -1 -1 -1 -3 -3 -2 -1 0 1 1 1 1 0 1 1 -1 1 1 0 0 -1 -3 -2 -1 0 1 1 -0 -3 -3 -5 -4 -2 -2
1 -0 -23 -12 -7 -1 -2 -2 -2 -2 -1 -1 -0 -1 -1 -1 -2 -1 -1 -0 1 1 0 0 1 0 1 1 1 0 0 -1 1 0 1 0 -0 1 1 1 -0 -3 -3 -4 -3 -5 -1
1 -0 -18 -12 -11 -1 -2 -1 -1 -0 -2 -2 -2 -2 -2 -1 -2 -3 -1 -0 0 1 1 1 0 0 1 1 1 0 -1 -1 -1 -2 -0 -1 -0 1 0 1 -1 -3 -3 -3 -4 -1 -1
1 1 -11 -12 -13 -1 -0 -1 -0 -1 -1 0 -1 -2 -2 -2 -2 -2 -2 -2 -1 0 0 0 1 1 1 -0 0 -1 -0 -1 -2 -1 -3 1 -1 -0 -1 -1 -4 -3 -3 -3 -1 -2 -1
Wind_Speed
35 38 41 40 40 37 33 29 26 22 20 16 16 18 17 18 17 19 21 19 16 15 17 10 18 24 19 9 8 10 14 17 15 15 17 10 8 5 3 3 5 6 7 15 21 23 23
39 41 42 45 45 42 38 32 29 24 22 16 11 12 16 18 17 18 21 19 17 15 17 8 21 18 15 3 9 15 16 16 9 18 15 12 6 9 4 4 2 5 10 12 15 19 19
42 45 47 44 47 47 48 36 32 26 21 12 7 12 14 15 16 18 21 20 17 20 15 18 24 17 12 9 5 13 14 9 12 14 15 12 9 5 1 4 5 9 6 11 14 21 10
44 43 41 51 46 43 39 34 27 13 8 7 8 10 15 15 15 17 19 20 18 18 13 20 24 19 6 13 14 19 14 14 11 10 10 6 4 6 3 5 6 5 3 5 5 2 8
38 39 45 39 40 43 34 31 9 6 6 9 9 10 13 14 14 16 18 18 8 2 16 27 25 11 6 16 20 15 13 16 13 8 8 7 3 4 2 1 4 4 5 6 7 7 5
37 50 41 40 37 36 33 27 24 17 15 12 14 13 13 14 14 14 14 12 4 17 28 28 22 11 11 14 21 20 9 15 12 9 7 6 6 1 2 3 4 4 4 5 7 5 8
54 45 33 33 27 33 30 31 28 23 19 15 14 13 13 13 12 8 11 3 5 5 4 5 13 4 18 16 21 20 17 14 11 6 5 4 2 10 13 10 11 7 10 15 18 18 14
43 36 31 31 30 30 28 29 25 22 19 17 15 13 12 12 5 7 8 6 10 4 4 4 18 13 26 26 13 19 18 8 7 5 6 2 9 13 8 7 13 15 18 19 17 13 7
44 33 30 29 29 30 30 28 27 22 20 18 15 13 12 7 6 5 8 6 7 3 2 3 8 15 17 13 9 17 21 11 7 6 10 6 5 2 11 11 13 15 15 16 15 16 12
34 31 28 28 28 31 30 28 27 22 19 16 14 11 9 2 3 8 3 7 6 9 3 3 2 6 9 7 4 15 21 5 4 8 9 7 11 9 8 11 12 14 11 17 15 10 6
31 30 26 27 30 32 33 32 29 27 18 11 10 8 8 10 4 8 8 7 3 2 4 3 3 13 10 2 13 8 15 4 3 5 4 6 3 6 3 7 11 9 8 8 13 13 7
32 29 26 27 31 33 37 35 32 26 19 12 9 6 6 7 7 5 7 2 2 2 5 3 4 5 4 2 2 6 5 5 1 2 4 9 5 3 4 3 6 10 11 14 11 7 6
33 27 25 28 30 34 35 35 33 29 22 15 6 5 3 5 5 6 1 4 2 5 3 1 4 5 6 3 5 6 5 4 3 3 3 2 2 3 3 5 3 6 4 4 2 2 3
33 28 26 28 30 35 35 34 31 30 24 17 6 5 3 6 7 8 4 3 6 8 6 4 4 5 2 4 3 5 3 2 4 3 2 2 2 5 6 5 3 4 2 2 4 3 3
31 30 25 26 31 34 37 32 27 21 26 22 13 14 12 10 10 13 4 6 5 3 3 5 4 3 0 2 2 1 2 2 3 7 3 2 3 3 9 6 3 1 3 3 3 3 1
29 28 27 24 28 31 33 32 23 15 17 15 17 15 17 18 16 11 4 8 5 7 5 3 1 4 3 2 1 1 1 4 3 10 3 2 3 5 4 6 10 5 2 3 2 4 2
28 27 28 23 24 27 29 28 24 17 15 13 10 6 21 21 12 11 5 4 4 7 5 1 3 3 3 4 3 3 1 2 2 4 12 5 2 5 1 3 2 1 2 3 3 3 2
27 26 26 23 20 22 23 24 23 15 20 9 9 4 19 17 7 4 3 2 6 6 6 4 2 2 3 5 3 1 1 3 5 1 6 6 2 3 5 4 3 3 4 4 2 4 3
26 25 25 24 20 20 21 19 19 18 19 16 5 5 17 17 5 4 5 2 3 8 5 7 6 4 3 2 4 2 1 5 6 2 1 2 3 3 6 4 4 2 7 5 1 3 3
24 24 23 23 22 24 23 20 16 16 16 12 3 3 7 9 11 3 4 5 6 9 4 6 4 6 5 7 6 2 3 3 7 3 1 1 3 1 3 5 4 7 14 9 3 3 2
24 21 22 21 21 19 20 18 14 13 15 7 5 2 2 3 7 5 3 4 5 7 7 16 8 10 3 5 5 6 4 6 5 11 2 3 3 3 3 5 2 4 8 14 7 1 4
21 21 21 20 20 20 20 19 14 9 10 9 4 2 2 3 8 5 5 4 5 5 5 5 4 5 8 5 1 4 5 4 3 6 4 3 0 2 6 6 7 5 11 11 8 8 6
20 20 20 20 19 18 19 19 12 7 6 6 9 6 2 3 4 3 2 4 6 7 3 4 3 2 6 5 12 13 8 2 2 3 5 3 2 2 3 5 5 5 6 5 3 5 3
19 19 20 20 19 20 20 18 11 4 7 10 10 8 3 3 2 0 3 4 4 8 3 5 6 1 5 12 5 1 2 6 8 6 4 2 2 2 2 4 4 5 2 1 5 2 4
20 18 18 19 18 20 17 13 9 3 7 10 8 3 2 1 2 3 5 4 8 4 4 4 4 6 12 5 3 3 4 5 3 3 5 3 3 2 2 1 3 2 2 2 1 2 0
19 17 15 17 17 18 14 10 10 6 6 7 10 7 1 4 2 3 3 4 2 3 6 3 5 8 8 3 3 2 1 2 5 9 5 3 5 3 1 2 3 3 3 3 2 4 3
17 17 14 13 14 12 9 8 8 9 6 4 4 4 2 1 1 1 2 3 3 2 1 5 8 5 8 3 2 1 3 2 2 3 3 4 3 1 0 2 6 4 3 2 3 4 4
16 15 14 10 10 8 6 4 8 10 8 5 4 1 2 1 4 4 2 3 3 2 1 6 3 3 4 3 1 2 2 3 1 4 2 3 2 3 1 1 6 6 3 5 4 5 7
14 14 12 9 7 6 3 2 5 5 6 6 7 4 0 2 3 9 9 8 7 7 4 3 1 2 1 2 0 1 2 1 2 3 2 3 5 3 7 5 4 7 4 4 9 9 7
Wind_Direction
335 333 329 323 317 306 301 294 287 284 280 289 297 311 307 308 310 314 311 309 313 299 290 240 219 179 174 178 223 159 144 158 164 178 167 169 178 159 167 216 276 261 278 272 270 270 270
334 332 332 326 312 300 287 278 279 275 273 277 289 304 300 303 313 313 317 316 306 286 261 216 192 187 171 230 164 161 161 166 185 170 171 180 193 208 239 228 182 289 293 288 288 279 271
339 339 336 329 323 319 313 298 273 272 264 266 288 297 312 316 314 315 321 319 310 291 255 211 186 178 165 215 195 188 173 192 170 176 175 190 209 221 114 328 319 312 317 309 272 263 261
344 340 340 331 334 331 327 313 281 279 300 314 290 310 322 312 321 322 323 326 328 296 225 192 180 168 150 166 170 178 169 154 156 155 176 193 191 220 224 284 327 331 313 319 291 161 247
343 352 347 347 355 358 355 29 26 301 359 5 343 336 320 319 329 330 328 329 341 208 162 168 161 144 125 162 174 169 173 162 160 176 212 222 194 221 203 180 285 245 279 263 300 221 234
360 355 355 353 355 7 20 17 17 12 0 357 358 335 329 329 340 337 332 341 311 129 146 147 151 116 157 186 177 175 163 157 145 149 161 178 195 201 179 177 233 219 248 269 260 298 272
357 0 3 9 11 5 9 12 15 14 12 355 347 343 341 342 351 343 353 24 108 114 112 149 166 85 155 165 169 187 176 162 147 168 186 226 169 219 216 212 240 300 280 277 271 273 276
355 8 10 9 7 6 6 5 4 0 356 354 349 346 345 353 8 15 19 79 37 280 27 112 150 130 142 142 142 162 176 150 140 186 185 116 245 243 221 216 241 256 267 270 284 265 239
360 5 6 5 7 4 2 0 357 357 356 354 351 350 353 355 151 41 44 59 349 167 201 123 125 129 139 137 154 169 170 160 176 199 199 191 233 70 204 230 244 250 251 273 262 302 255
1 5 11 7 6 0 0 360 358 353 353 354 353 354 2 79 125 95 49 8 334 172 163 85 149 163 152 152 105 179 176 174 190 213 208 237 240 243 251 232 210 271 232 254 276 314 299
3 9 14 8 7 2 360 358 355 345 343 330 331 354 9 28 58 57 30 9 350 187 84 107 124 142 164 99 142 186 198 240 234 201 181 242 230 230 251 249 200 250 257 283 280 277 287
4 12 15 8 8 5 3 2 1 357 351 335 313 319 5 25 58 39 1 74 152 34 67 85 101 143 110 278 77 134 173 216 283 330 246 251 276 276 252 302 246 280 296 275 257 244 246
4 11 13 10 12 13 7 6 3 3 356 3 351 297 336 26 27 356 75 171 49 59 191 124 146 151 160 177 138 179 169 188 220 224 259 301 250 313 257 288 227 203 270 297 284 226 253
6 11 12 10 14 15 10 11 12 11 31 33 70 113 78 45 21 9 338 45 63 60 69 143 116 74 125 157 162 191 165 251 200 196 279 301 271 205 177 233 283 252 172 263 292 323 343
8 8 9 14 22 18 15 16 22 32 45 41 54 83 70 53 24 358 346 52 62 45 332 90 76 100 55 230 162 147 236 267 225 192 215 321 296 280 215 226 222 12 247 213 263 222 192
7 10 12 20 26 20 16 15 15 29 14 40 70 60 29 10 2 24 45 70 55 38 348 205 184 186 131 72 11 101 271 187 245 197 189 354 291 213 275 203 238 205 340 297 281 325 50
6 10 8 23 26 23 17 14 14 6 7 4 34 35 8 6 37 54 52 42 360 317 337 220 12 109 154 172 184 199 319 241 270 168 174 199 257 286 282 238 273 108 288 277 258 164 330
2 9 9 8 20 25 18 13 9 8 3 2 35 37 5 17 50 42 50 16 334 315 349 346 308 53 146 182 170 154 197 249 331 213 182 211 250 271 240 243 230 197 264 209 185 285 38
1 2 7 8 7 19 21 18 7 357 1 0 56 347 19 22 51 357 340 2 16 8 346 353 348 20 345 36 84 79 279 278 300 4 270 324 1 323 332 3 5 356 316 243 210 57 2
356 358 5 3 8 7 11 15 14 7 0 3 11 23 1 30 33 355 357 356 354 358 313 342 305 344 42 28 22 71 339 298 336 323 286 114 67 100 151 235 269 331 355 10 108 73 108
350 355 358 1 358 3 2 6 17 17 11 23 45 10 12 354 353 359 24 350 349 13 352 18 18 21 59 31 14 6 351 337 329 8 80 91 56 31 352 343 36 8 1 18 42 66 81
347 349 351 359 356 352 350 350 356 32 33 53 84 19 29 11 337 2 355 332 3 348 32 356 58 0 45 79 42 305 337 6 344 324 31 6 253 51 352 351 14 42 19 12 22 42 69
341 344 347 353 354 350 346 343 342 29 60 100 111 83 12 358 353 47 323 309 325 343 38 61 299 69 30 339 311 303 297 22 23 0 343 41 88 48 295 342 344 11 350 5 5 29 131
334 342 342 349 352 349 352 350 343 22 72 113 123 118 103 298 50 3 313 320 325 337 310 334 14 50 334 328 327 30 310 359 18 7 28 76 75 88 249 0 34 239 269 321 105 68 19
328 338 339 345 350 350 354 6 2 50 96 109 110 110 137 157 356 342 339 289 321 330 3 321 355 350 340 355 42 14 341 353 315 321 3 44 111 49 105 147 270 285 249 197 141 221 275
320 330 337 343 352 355 10 30 45 58 85 110 99 98 89 114 252 311 314 329 329 328 341 311 320 339 356 48 55 54 280 277 318 332 357 61 80 110 46 97 237 215 187 166 100 290 190
313 320 329 341 350 358 16 45 73 87 91 79 92 71 76 333 201 167 255 286 338 344 264 305 337 346 7 35 49 178 269 224 282 291 324 341 356 102 274 262 290 236 175 172 107 235 179
303 310 316 331 345 351 8 69 107 110 99 66 4 309 134 299 263 233 245 259 290 279 268 324 351 353 7 38 127 254 209 254 321 246 206 201 156 245 67 8 286 160 117 173 211 141 145
291 297 303 309 333 340 327 146 138 128 98 59 40 41 46 185 240 250 254 248 247 249 270 306 296 271 57 70 26 281 288 309 188 277 325 264 189 206 182 223 258 205 242 209 165 163 166
Height
1528 1522 1515 1508 1503 1495 1490 1484 1481 1479 1477 1476 1476 1476 1474 1471 1469 1466 1463 1459 1457 1458 1457 1459 1459 1462 1469 1473 1473 1474 1475 1479 1482 1485 1487 1490 1492 1495 1496 1497 1497 1497 1494 1493 1492 1491 1488
1525 1518 1510 1502 1494 1483 1475 1473 1470 1470 1470 1469 1469 1469 1469 1467 1465 1463 1460 1455 1454 1453 1453 1457 1458 1459 1468 1474 1472 1473 1475 1480 1482 1484 1487 1490 1492 1494 1495 1495 1497 1495 1493 1491 1489 1486 1485
1520 1513 1504 1495 1487 1478 1471 1460 1461 1460 1460 1462 1464 1464 1464 1463 1461 1459 1455 1451 1449 1448 1448 1454 1455 1458 1463 1472 1473 1472 1476 1480 1482 1484 1487 1491 1492 1494 1494 1494 1495 1494 1493 1488 1482 1477 1479
1516 1508 1499 1492 1481 1471 1461 1451 1447 1451 1454 1456 1459 1460 1460 1460 1457 1454 1453 1446 1445 1442 1443 1450 1452 1459 1467 1470 1472 1475 1477 1480 1483 1485 1487 1490 1491 1492 1493 1493 1493 1495 1494 1496 1479 1475 1473
1515 1507 1499 1489 1480 1470 1460 1450 1446 1450 1452 1453 1456 1457 1458 1457 1455 1452 1447 1444 1442 1442 1445 1449 1453 1460 1466 1470 1473 1475 1478 1480 1483 1486 1488 1490 1491 1492 1491 1494 1494 1492 1491 1493 1482 1470 1470
1512 1504 1496 1488 1482 1473 1466 1460 1455 1453 1453 1454 1455 1456 1456 1454 1452 1449 1446 1445 1445 1447 1446 1448 1455 1462 1466 1467 1471 1476 1480 1482 1483 1486 1489 1490 1491 1491 1490 1494 1505 1492 1490 1487 1485 1470 1466
1511 1503 1496 1489 1482 1477 1471 1467 1462 1460 1458 1458 1455 1454 1453 1452 1451 1449 1446 1446 1447 1449 1449 1450 1454 1455 1459 1465 1472 1476 1480 1481 1483 1487 1488 1489 1491 1490 1487 1489 1488 1489 1487 1480 1470 1463 1466
1511 1504 1497 1491 1487 1481 1475 1470 1466 1462 1459 1456 1455 1454 1451 1450 1449 1448 1446 1447 1449 1452 1450 1453 1454 1457 1460 1466 1472 1476 1480 1482 1483 1485 1486 1491 1489 1482 1486 1488 1487 1485 1483 1474 1462 1455 1457
1513 1506 1500 1494 1489 1483 1477 1472 1467 1462 1458 1457 1454 1451 1448 1447 1448 1450 1449 1449 1449 1452 1454 1456 1457 1460 1463 1469 1472 1473 1477 1479 1480 1483 1483 1486 1479 1475 1481 1482 1483 1477 1476 1468 1464 1451 1443
1513 1507 1501 1496 1491 1484 1478 1473 1468 1464 1460 1456 1453 1450 1448 1446 1450 1450 1450 1450 1450 1450 1452 1461 1459 1463 1466 1466 1470 1472 1475 1477 1477 1479 1479 1480 1474 1473 1472 1472 1475 1471 1463 1458 1453 1452 1445
1514 1507 1501 1497 1492 1485 1479 1474 1468 1462 1458 1455 1452 1451 1449 1447 1448 1447 1448 1448 1447 1449 1446 1460 1461 1462 1464 1468 1470 1474 1475 1475 1474 1475 1476 1476 1469 1468 1469 1466 1463 1460 1455 1455 1452 1449 1447
1513 1506 1502 1498 1493 1487 1480 1474 1467 1460 1456 1451 1451 1451 1451 1450 1450 1451 1450 1450 1451 1455 1454 1459 1463 1464 1467 1469 1470 1473 1474 1476 1476 1475 1472 1471 1469 1469 1463 1461 1462 1458 1456 1448 1442 1444 1436
1515 1508 1503 1499 1494 1489 1482 1475 1467 1461 1455 1450 1450 1451 1453 1454 1456 1453 1451 1451 1458 1454 1461 1467 1463 1465 1466 1468 1470 1470 1472 1475 1474 1473 1471 1469 1466 1465 1464 1463 1455 1459 1456 1450 1440 1433 1429
1517 1512 1508 1502 1497 1491 1486 1478 1471 1464 1457 1454 1452 1452 1454 1455 1456 1455 1454 1456 1450 1455 1457 1462 1461 1465 1467 1465 1466 1468 1472 1470 1471 1472 1471 1471 1465 1462 1460 1459 1453 1449 1452 1447 1439 1429 1425
1518 1513 1508 1504 1498 1494 1488 1483 1476 1471 1466 1463 1461 1459 1458 1457 1455 1453 1453 1449 1458 1460 1460 1462 1467 1466 1468 1465 1466 1467 1469 1471 1467 1470 1471 1460 1461 1455 1455 1451 1450 1447 1446 1446 1441 1436 1430
1518 1513 1508 1504 1500 1496 1493 1488 1484 1478 1473 1470 1468 1465 1463 1460 1456 1453 1453 1457 1463 1464 1465 1463 1465 1463 1467 1467 1468 1470 1468 1467 1464 1463 1467 1465 1461 1453 1450 1449 1445 1446 1445 1444 1444 1436 1424
1521 1515 1512 1505 1500 1497 1494 1492 1488 1484 1478 1474 1470 1468 1467 1462 1459 1458 1465 1471 1469 1466 1465 1462 1460 1461 1464 1466 1466 1465 1464 1461 1459 1459 1464 1464 1464 1455 1448 1444 1442 1445 1449 1447 1439 1440 1434
1521 1516 1511 1506 1501 1495 1493 1492 1490 1487 1483 1480 1474 1476 1472 1466 1465 1468 1474 1473 1472 1468 1465 1463 1462 1459 1460 1463 1463 1463 1463 1461 1457 1458 1462 1458 1458 1459 1446 1439 1438 1442 1441 1440 1445 1436 1443
1520 1516 1511 1506 1501 1496 1493 1491 1490 1488 1486 1483 1482 1480 1476 1471 1477 1481 1475 1473 1473 1471 1470 1467 1464 1462 1459 1459 1464 1462 1461 1456 1456 1457 1456 1455 1460 1463 1449 1446 1442 1445 1440 1432 1430 1436 1449
1519 1515 1510 1507 1505 1503 1497 1492 1490 1489 1487 1486 1486 1487 1482 1479 1481 1481 1481 1480 1476 1472 1472 1471 1468 1462 1462 1464 1462 1463 1461 1456 1455 1455 1454 1455 1463 1464 1476 1462 1456 1451 1439 1431 1432 1442 1449
1520 1515 1510 1507 1503 1498 1495 1489 1487 1487 1486 1486 1489 1492 1490 1493 1486 1486 1483 1484 1481 1478 1473 1471 1470 1470 1467 1471 1469 1470 1464 1461 1455 1454 1454 1456 1466 1469 1459 1458 1454 1454 1449 1441 1442 1440 1445
1519 1514 1510 1504 1501 1499 1495 1491 1487 1483 1483 1485 1490 1493 1492 1490 1490 1489 1488 1485 1482 1479 1477 1477 1477 1476 1474 1479 1480 1476 1472 1467 1464 1457 1457 1458 1471 1465 1463 1459 1458 1458 1455 1451 1448 1448 1454
1518 1513 1508 1505 1500 1496 1491 1489 1486 1484 1482 1485 1488 1492 1493 1492 1491 1493 1492 1489 1485 1481 1479 1479 1477 1475 1475 1476 1474 1472 1471 1468 1466 1464 1462 1461 1468 1475 1473 1467 1459 1462 1463 1461 1456 1456 1454
1517 1513 1509 1505 1500 1496 1491 1489 1487 1486 1484 1484 1487 1488 1490 1495 1493 1493 1491 1489 1486 1484 1484 1480 1478 1476 1476 1472 1471 1470 1469 1468 1466 1465 1463 1464 1468 1478 1483 1471 1485 1464 1459 1459 1460 1460 1456
1515 1512 1508 1505 1500 1496 1491 1486 1487 1487 1486 1485 1488 1491 1490 1492 1493 1492 1492 1490 1486 1484 1483 1482 1480 1478 1475 1472 1474 1477 1477 1472 1468 1466 1464 1463 1469 1478 1481 1493 1469 1460 1459 1458 1457 1459 1458
1513 1510 1507 1504 1502 1499 1493 1489 1488 1492 1492 1490 1487 1489 1492 1492 1493 1493 1492 1491 1491 1488 1485 1481 1480 1479 1477 1476 1478 1478 1483 1476 1475 1471 1464 1464 1467 1474 1476 1476 1461 1459 1458 1458 1458 1466 1456
1511 1509 1506 1503 1502 1499 1494 1490 1487 1489 1495 1496 1492 1490 1491 1493 1493 1493 1493 1493 1492 1491 1490 1486 1483 1480 1478 1482 1485 1486 1490 1478 1480 1476 1472 1475 1475 1475 1477 1478 1466 1456 1455 1456 1463 1464 1454
1509 1507 1506 1502 1500 1501 1498 1494 1491 1489 1490 1492 1492 1490 1489 1493 1494 1493 1492 1492 1492 1491 1492 1487 1485 1484 1483 1485 1487 1486 1487 1481 1479 1475 1470 1475 1479 1478 1477 1477 1477 1454 1456 1458 1455 1453 1454
1505 1504 1503 1502 1500 1502 1502 1497 1494 1492 1491 1493 1493 1491 1490 1487 1491 1492 1491 1490 1489 1490 1491 1488 1488 1487 1486 1490 1488 1488 1484 1486 1484 1482 1470 1477 1470 1472 1472 1466 1453 1452 1452 1452 1452 1453 1454